Regional Weather Roundup
Issued by NWS

Home | Current Version | Previous Version | Graphics & Text | Print | Product List | Glossary On
Versions: 1 2 3 4 5 6 7 8 9 10 11 12 13 14 15 16 17 18 19 20 21 22 23 24 25 26 27 28 29 30 31 32 33 34 35 36 37 38 39 40 41 42 43 44 45 46 47 48 49 50
000
ASUS45 KCYS 212210
RWRWY

WYOMING REGIONAL WEATHER ROUNDUP
NATIONAL WEATHER SERVICE CHEYENNE WY
400 PM MDT SUN SEP 21 2014

NOTE:  "FAIR" INDICATES FEW OR NO CLOUDS BELOW 12,000 FEET
WITH NO SIGNIFICANT WEATHER AND/OR OBSTRUCTIONS TO VISIBILITY.

WYZ001-212300-
YELLOWSTONE NATIONAL PARK

CITY           SKY/WX    TMP DP  RH WIND       PRES   REMARKS
LK YELLOWSTONE   N/A     67  41  38 CALM      30.35F
W YELLOWSTONE  NOT AVBL

$$
WYZ002>013-054>058-071-098>099-212300-
NORTHERN WYOMING

CITY           SKY/WX    TMP DP  RH WIND       PRES   REMARKS
JACKSON        CLOUDY    72  39  30 SW8       30.25F
CODY             N/A    N/A N/A N/A MISG        N/A
GREYBULL       MOSUNNY   79  39  23 CALM      30.15F
WORLAND        MOSUNNY   77  44  30 N6        30.16F
SHERIDAN       SUNNY     79  41  25 SE15      30.18F
BUFFALO        SUNNY     74  40  29 S14       30.26F
GILLETTE       SUNNY     74  39  28 SE7       30.25F
HULETT         FAIR      73  37  27 MISG      30.28
NEWCASTLE      FAIR      73  32  21 SE3       30.28

$$
WYZ014>020-022>026-101>103-212300-
CENTRAL WYOMING

CITY           SKY/WX    TMP DP  RH WIND       PRES   REMARKS
BIG PINEY      CLOUDY    64  39  39 S18       30.33S
PINEDALE       CLOUDY    66  37  34 S16       30.33S
DUBOIS         FAIR      63  34  34 E7        30.33F
LANDER         MOSUNNY   73  39  29 S5        30.23F
RIVERTON       MOSUNNY   71  38  29 VRB3      30.25F
CASPER         PTSUNNY   75  40  28 E13G18    30.25F
DOUGLAS        MOSUNNY   72  41  32 SE20      30.28F

$$
WYZ021-027>030-104>119-212300-
SOUTHERN WYOMING

CITY           SKY/WX    TMP DP  RH WIND       PRES   REMARKS
EVANSTON       LGT RAIN  52  50  93 E7        30.31F
KEMMERER       LGT RAIN  52  50  93 N9        30.33F
FORT BRIDGER     N/A     54  51  90 N7        30.33F
ROCK SPRINGS   CLOUDY    64  47  53 SW14      30.31F
DIXON          FAIR      66  47  49 E9        30.33F
RAWLINS        PTSUNNY   69  45  41 SW16G23   30.33S
SARATOGA       MOCLDY    72  46  40 W10       30.34F
LARAMIE        PTSUNNY   62  44  51 SE15G25   30.36R
CHEYENNE       MOSUNNY   66  43  43 SE14      30.33F
TORRINGTON     MOSUNNY   74  41  30 SE17G23   30.27S
PINE BLUFFS    FAIR      68  43  40 S13       30.31S

$$


USA.gov is the U.S. government's official web portal to all federal, state and local government web resources and services.